Location: Lake Sonoma
(38.7200°N, 123.0564°W)
Time: 22:59:22
(UTC-07:00)

Amateur Radio Satellites - All Passes

Search period start: 28 July 2016 22:29
Search period end: 29 July 2016 22:29
Location: Lake Sonoma, 38.7200°N, 123.0564°W

Satellite Date Start Highest point End Downlink Frequencies (MHz)
Time Altitude Azimuth
HUMSAT D 28 Jul 22:29:38 22:33:53 63° 75° (ENE) 22:38:09 437.325/437.525
YUBILEINY 28 Jul 22:49:53 22:57:18 31° 276° (W) 23:04:40 435.215
AIST 2 28 Jul 22:54:12 22:55:12 11° 319° (NW) 22:56:11 435.215
AISAT 28 Jul 22:56:49 22:58:50 13° 64° (ENE) 23:00:53 437.250
M-CUBED/EXP-1 PRIME 28 Jul 22:57:01 23:00:12 26° 260° (W) 23:03:39 437.505
AO-85 28 Jul 22:57:40 23:02:03 79° 59° (ENE) 23:06:03 145.980
TIGRISAT 28 Jul 23:02:53 23:07:07 35° 97° (E) 23:11:13 435.000
ISS 28 Jul 23:03:40 23:05:26 14° 341° (NNW) 23:07:12 145.825
FUNcube-1 28 Jul 23:08:31 23:10:19 12° 270° (W) 23:12:09 145.935
ZACube-1 28 Jul 23:11:21 23:12:25 11° 271° (W) 23:13:28 437.345
PRISM 28 Jul 23:16:32 23:18:14 12° 296° (WNW) 23:19:57 437.425
UNISAT 6 28 Jul 23:19:41 23:24:15 58° 100° (E) 23:28:41 437.425
Cosmos 2504 28 Jul 23:20:50 23:28:35 53° 270° (W) 23:35:46 435.465 / 435.565
AUBIESAT-1 28 Jul 23:22:15 23:24:49 17° 263° (W) 23:27:30 437.475
DELFI C3 28 Jul 23:25:43 23:27:29 13° 268° (W) 23:29:14 145.870
SPROUT 28 Jul 23:29:33 23:31:21 12° 64° (ENE) 23:33:09 437.525
ESTCUBE 1 28 Jul 23:36:58 23:41:22 59° 75° (ENE) 23:45:48 437.505/2401.250
CUBEBUG 1 28 Jul 23:41:45 23:45:49 42° 72° (ENE) 23:49:54 437.445
VELOX 1 28 Jul 23:45:38 23:49:45 41° 72° (ENE) 23:53:53 145.980
ANTELSAT 28 Jul 23:58:10 00:02:40 53° 287° (WNW) 00:07:03 437.575/2403.000
NANOSAT C BR1 29 Jul 00:05:32 00:09:04 25° 96° (E) 00:12:33 145.865
DUCHIFAT 1 29 Jul 00:08:50 00:12:22 25° 96° (E) 00:15:53 145.980
HUMSAT D 29 Jul 00:09:32 00:09:52 10° 270° (W) 00:10:12 437.325/437.525
50 SAT 29 Jul 00:13:42 00:17:23 83° 259° (WSW) 00:21:03 437.505
Cosmos 2491 29 Jul 00:15:03 00:20:28 18° 297° (WNW) 00:25:56 435.465 / 435.565
BUGSAT 1 29 Jul 00:16:31 00:18:31 13° 92° (E) 00:20:30 437.445
DX 1 29 Jul 00:23:08 00:27:27 82° 77° (ENE) 00:31:48 434.975-435.025
QB50P1 29 Jul 00:28:39 00:32:49 48° 100° (E) 00:36:56 145.935-145.965
AISAT 29 Jul 00:30:30 00:34:48 56° 259° (W) 00:39:09 437.250
UKube-1 29 Jul 00:33:02 00:37:20 83° 77° (ENE) 00:41:39 .
POPSAT HIP 1 29 Jul 00:35:15 00:39:30 57° 101° (E) 00:43:42 437.405
TIGRISAT 29 Jul 00:40:04 00:43:33 21° 293° (WNW) 00:46:58 435.000
AIST 1 29 Jul 00:48:52 00:53:13 72° 81° (E) 00:57:34
QB50P2 29 Jul 00:56:41 01:00:59 73° 285° (WNW) 01:05:14 145.880/145.840
UNISAT 6 29 Jul 00:58:05 01:00:25 14° 297° (WNW) 01:02:43 437.425
POLYITAN 1 29 Jul 00:59:21 01:03:38 71° 284° (WNW) 01:07:52 437.675
SPROUT 29 Jul 01:02:36 01:06:47 56° 260° (W) 01:11:02 437.525
GONETS M04 29 Jul 01:02:57 01:07:18 14° 61° (ENE) 01:11:38
SWISSCUBE 29 Jul 01:16:02 01:16:53 10° 61° (ENE) 01:17:43 437.505
JAS-2 29 Jul 01:16:15 01:21:26 46° 100° (E) 01:27:06 435.910
ESTCUBE 1 29 Jul 01:16:58 01:18:32 12° 269° (W) 01:20:07 437.505/2401.250
CUBEBUG 1 29 Jul 01:19:48 01:22:18 15° 268° (W) 01:24:49 437.445
VELOX 1 29 Jul 01:23:40 01:26:23 16° 267° (W) 01:29:07 145.980
BEESAT 29 Jul 01:35:05 01:37:49 15° 63° (ENE) 01:40:34 436.000
NANOSAT C BR1 29 Jul 01:41:10 01:44:42 26° 291° (WNW) 01:48:14 145.865
DUCHIFAT 1 29 Jul 01:44:26 01:47:58 25° 291° (WNW) 01:51:27 145.980
BUGSAT 1 29 Jul 01:50:01 01:54:08 49° 287° (WNW) 01:58:13 437.445
TISAT 1 29 Jul 01:50:32 01:54:43 71° 259° (W) 01:58:56 437.305
ITUPSAT 1 29 Jul 01:58:11 02:02:07 26° 67° (ENE) 02:06:02 437.325
QB50P1 29 Jul 02:05:53 02:08:09 14° 295° (WNW) 02:10:25 145.935-145.965
POPSAT HIP 1 29 Jul 02:13:00 02:14:45 12° 296° (WNW) 02:16:30 437.405
Cosmos 2499 29 Jul 02:14:21 02:20:44 27° 69° (ENE) 02:26:44 435.465 / 435.565
ISS 29 Jul 02:18:24 02:20:35 17° 22° (NNE) 02:22:47 145.825
JUGNU 29 Jul 02:24:23 02:26:08 11° 176° (S) 02:27:52 437.505
Gurwin Techsat 1B 29 Jul 02:44:39 02:49:34 37° 98° (E) 02:54:26 435.225
Oscar 19 29 Jul 02:46:58 02:52:10 89° 104° (ESE) 02:57:22 437.125/150
SWISSCUBE 29 Jul 02:49:09 02:53:57 85° 257° (WSW) 02:58:46 437.505
ITAMSAT 1 29 Jul 02:49:28 02:51:13 12° 90° (E) 02:52:57 435.822/435.867
GONETS M04 29 Jul 02:56:51 03:05:42 76° 81° (E) 03:14:33
JAS-2 29 Jul 03:02:17 03:06:18 22° 294° (WNW) 03:10:32 435.910
BEESAT 3 29 Jul 03:05:25 03:09:09 38° 54° (NE) 03:12:51 437.485
BEESAT 29 Jul 03:10:25 03:15:06 56° 259° (W) 03:19:50 436.000
BEESAT 2 29 Jul 03:15:56 03:19:25 27° 51° (NE) 03:22:51 435.950
MOZHAYETS 4 29 Jul 03:33:04 03:37:04 30° 70° (ENE) 03:41:04
ITUPSAT 1 29 Jul 03:35:30 03:39:47 32° 263° (W) 03:44:05 437.325
AO-7 29 Jul 03:44:54 03:51:18 24° 94° (E) 03:57:38 29.400- 29.500
PCSat 29 Jul 03:50:59 03:55:41 29° 52° (NE) 04:00:20 145.827
ISS 29 Jul 03:54:07 03:57:23 84° 217° (SW) 04:00:37 145.825
Cosmos 2499 29 Jul 04:06:49 04:14:15 52° 270° (W) 04:21:10 435.465 / 435.565
CUSAT 1 29 Jul 04:09:00 04:13:06 76° 279° (W) 04:16:19 437.405
JUGNU 29 Jul 04:12:51 04:14:13 11° 186° (S) 04:15:35 437.505
KKS-1 29 Jul 04:19:13 04:23:39 89° 65° (ENE) 04:28:08 437.445
Gurwin Techsat 1B 29 Jul 04:24:56 04:29:18 27° 294° (WNW) 04:33:41 435.225
ITAMSAT 1 29 Jul 04:26:01 04:31:13 76° 286° (WNW) 04:36:22 435.822/435.867
Oscar 19 29 Jul 04:29:12 04:30:42 11° 300° (WNW) 04:32:13 437.125/150
BEESAT 3 29 Jul 04:44:00 04:46:30 16° 250° (WSW) 04:49:00 437.485
SRMSAT 29 Jul 04:45:17 04:46:56 11° 176° (S) 04:48:36 437.500
DANDE 29 Jul 04:50:33 04:56:10 81° 279° (W) 05:00:18 436.750
STARS 29 Jul 04:51:58 04:56:21 81° 257° (WSW) 05:00:47 437.465
BEESAT 2 29 Jul 04:53:52 04:57:07 24° 248° (WSW) 05:00:21 435.950
GONETS M04 29 Jul 04:55:28 05:01:30 21° 280° (W) 05:07:34
CUBESAT XI-V 29 Jul 04:58:25 05:02:20 28° 69° (ENE) 05:06:14 437.345
MOZHAYETS 4 29 Jul 05:10:22 05:14:11 25° 265° (W) 05:18:01
RS-15 29 Jul 05:28:38 05:37:21 27° 101° (E) 05:46:23 29.354- 29.394
PCSat 29 Jul 05:34:08 05:39:09 39° 249° (WSW) 05:44:08 145.827
AIST 2 29 Jul 05:34:37 05:38:33 38° 54° (NE) 05:42:27 435.215
HORYU 2 29 Jul 05:35:54 05:39:50 30° 97° (E) 05:43:44 437.375
AO-7 29 Jul 05:36:21 05:44:39 70° 292° (WNW) 05:52:53 29.400- 29.500
O/OREOS (USA 219) 29 Jul 05:41:41 05:45:01 20° 58° (ENE) 05:48:21 437.305
GOMX 1 29 Jul 06:13:50 06:15:02 11° 89° (E) 06:16:17 467.674
CUTE-I 29 Jul 06:22:10 06:25:17 16° 92° (E) 06:28:24 437.470
NOAA 15 29 Jul 06:33:50 06:38:17 27° 96° (E) 06:42:43 137.62
SRMSAT 29 Jul 06:34:03 06:35:10 11° 186° (S) 06:36:17 437.500
CUBESAT XI-V 29 Jul 06:35:47 06:39:38 26° 265° (W) 06:43:30 437.345
BRITE-PL 29 Jul 06:57:54 07:02:50 67° 101° (E) 07:08:08 437.365/2234.400
HORYU 2 29 Jul 07:12:39 07:16:14 24° 292° (WNW) 07:19:46 437.375
AIST 2 29 Jul 07:13:51 07:16:44 18° 250° (WSW) 07:19:37 435.215
NOAA 18 29 Jul 07:15:51 07:21:14 50° 100° (E) 07:26:34 137.9125
O/OREOS (USA 219) 29 Jul 07:20:20 07:24:33 39° 255° (WSW) 07:28:47 437.305
STRAND 1 29 Jul 07:21:11 07:26:13 56° 73° (ENE) 07:31:15 437.568
DOVE 4 29 Jul 07:30:18 07:34:55 31° 96° (E) 07:39:35 437.250
AO-7 29 Jul 07:31:37 07:35:55 15° 311° (NW) 07:40:14 29.400- 29.500
SO-50 29 Jul 07:34:56 07:39:30 41° 115° (ESE) 07:44:04 436.795
RS-15 29 Jul 07:36:54 07:48:22 80° 302° (WNW) 08:00:33 29.354- 29.394
Cubesat XI-IV 29 Jul 07:37:26 07:42:49 83° 103° (ESE) 07:48:08 437.490
LilacSat-2 29 Jul 07:38:20 07:42:12 75° 283° (WNW) 07:46:00 437.200
GOMX 1 29 Jul 07:48:24 07:53:35 85° 283° (WNW) 07:59:00 467.674
CUTE-I 29 Jul 08:00:28 08:05:43 60° 287° (WNW) 08:10:56 437.470
CANX-2 29 Jul 08:05:12 08:07:29 14° 92° (E) 08:09:44 2200.000
NOAA 15 29 Jul 08:13:20 08:18:04 35° 291° (WNW) 08:22:47 137.62
CUTE 1.7 + AOD 2 29 Jul 08:17:42 08:20:30 17° 93° (E) 08:23:18 437.475
Cosmos 2491 29 Jul 08:25:56 08:34:09 43° 75° (ENE) 08:42:20 435.465 / 435.565
PRISM 29 Jul 08:27:39 08:31:14 30° 70° (ENE) 08:34:49 437.425
HO-68 29 Jul 08:31:51 08:38:20 35° 97° (E) 08:44:46 435.675
BRITE-PL 29 Jul 08:38:13 08:40:51 14° 295° (WNW) 08:43:34 437.365/2234.400
SEEDS 29 Jul 08:51:48 08:55:29 29° 97° (E) 08:59:07 437.485
NOAA 18 29 Jul 08:57:24 09:01:30 22° 297° (WNW) 09:05:36 137.9125
COMPASS 1 29 Jul 08:59:18 09:02:43 25° 96° (E) 09:06:07 437.405
CINEMA 3 29 Jul 09:01:54 09:06:57 76° 102° (ESE) 09:11:54 145.822/145.860
STRAND 1 29 Jul 09:02:35 09:05:42 16° 268° (W) 09:08:50 437.568
DOVE 4 29 Jul 09:07:57 09:12:30 31° 290° (WNW) 09:17:07 437.250
SO-50 29 Jul 09:16:04 09:20:07 25° 312° (NW) 09:24:09 436.795
Cubesat XI-IV 29 Jul 09:19:53 09:22:08 13° 300° (WNW) 09:24:23 437.490
FUNcube-1 29 Jul 09:20:49 09:22:43 12° 90° (E) 09:24:35 145.935
ANTELSAT 29 Jul 09:21:52 09:23:26 12° 62° (ENE) 09:25:01 437.575/2403.000
ZACube-1 29 Jul 09:22:39 09:25:05 14° 91° (E) 09:27:28 437.345
AAUSAT CUBESAT 2 29 Jul 09:24:52 09:28:44 38° 98° (E) 09:32:34 437.432
UWE-3 29 Jul 09:26:28 09:30:17 26° 95° (E) 09:33:59 435.000/436.395/437.385
GOMX 1 29 Jul 09:29:57 09:30:55 10° 298° (WNW) 09:31:53 467.674
CANX-2 29 Jul 09:39:33 09:43:32 42° 287° (WNW) 09:47:30 2200.000
YUBILEINY 29 Jul 09:51:03 09:59:41 65° 92° (E) 10:08:22 435.215
CUTE 1.7 + AOD 2 29 Jul 09:52:36 09:56:27 35° 288° (WNW) 10:00:16 437.475
CUBEBUG 2 29 Jul 09:53:05 09:57:48 77° 101° (E) 10:02:21 437.445
RS-15 29 Jul 09:53:26 10:03:08 28° 330° (NNW) 10:13:14 29.354- 29.394
Oscar 11 29 Jul 09:58:09 10:02:09 36° 98° (E) 10:06:07 145.826/435.025
TIGRISAT 29 Jul 10:00:07 10:04:01 27° 69° (ENE) 10:07:58 435.000
PRISM 29 Jul 10:03:41 10:06:34 19° 265° (W) 10:09:29 437.425
Cosmos 2504 29 Jul 10:04:09 10:11:08 27° 82° (E) 10:18:04 435.465 / 435.565
UNISAT 6 29 Jul 10:16:44 10:21:08 43° 72° (ENE) 10:25:35 437.425
HUMSAT D 29 Jul 10:17:08 10:18:06 11° 90° (E) 10:19:05 437.325/437.525
HO-68 29 Jul 10:19:23 10:26:04 43° 294° (WNW) 10:32:43 435.675
Cosmos 2491 29 Jul 10:22:55 10:30:50 40° 273° (W) 10:38:47 435.465 / 435.565
SEEDS 29 Jul 10:27:53 10:30:59 21° 292° (WNW) 10:34:04 437.485
COMPASS 1 29 Jul 10:34:51 10:38:10 24° 291° (WNW) 10:41:29 437.405
M-CUBED/EXP-1 PRIME 29 Jul 10:36:49 10:40:40 25° 99° (E) 10:44:28 437.505
CINEMA 3 29 Jul 10:41:13 10:43:22 13° 298° (WNW) 10:45:32 145.822/145.860
ANTELSAT 29 Jul 10:54:50 10:59:28 74° 258° (WSW) 11:04:11 437.575/2403.000
FUNcube-1 29 Jul 10:54:57 10:59:18 53° 286° (WNW) 11:03:31 145.935
NANOSAT C BR1 29 Jul 10:57:10 10:59:50 16° 66° (ENE) 11:02:30 145.865
ZACube-1 29 Jul 10:57:20 11:01:38 47° 287° (WNW) 11:05:49 437.345
DUCHIFAT 1 29 Jul 11:00:12 11:02:52 17° 66° (ENE) 11:05:33 145.980
AUBIESAT-1 29 Jul 11:00:26 11:04:43 35° 102° (ESE) 11:08:54 437.475
AAUSAT CUBESAT 2 29 Jul 11:01:23 11:03:53 16° 293° (WNW) 11:06:23 437.432
DELFI C3 29 Jul 11:01:56 11:05:54 89° 103° (ESE) 11:09:50 145.870
UWE-3 29 Jul 11:02:46 11:06:40 28° 291° (WNW) 11:10:28 435.000/436.395/437.385
QB50P1 29 Jul 11:19:50 11:23:34 30° 70° (ENE) 11:27:18 145.935-145.965
POPSAT HIP 1 29 Jul 11:26:22 11:30:14 35° 71° (ENE) 11:34:08 437.405
JAS-2 29 Jul 11:29:36 11:33:10 17° 64° (ENE) 11:36:35 435.910
ESTCUBE 1 29 Jul 11:32:22 11:34:39 14° 92° (E) 11:36:55 437.505/2401.250
CUBEBUG 2 29 Jul 11:32:29 11:33:41 11° 298° (WNW) 11:34:52 437.445
Oscar 11 29 Jul 11:35:02 11:38:00 18° 293° (WNW) 11:40:57 145.826/435.025
TIGRISAT 29 Jul 11:36:36 11:40:35 28° 264° (W) 11:44:39 435.000
QB50P2 29 Jul 11:47:33 11:51:46 69° 76° (ENE) 11:56:02 145.880/145.840
HUMSAT D 29 Jul 11:49:59 11:54:05 55° 285° (WNW) 11:58:05 437.325/437.525
YUBILEINY 29 Jul 11:50:00 11:57:05 27° 291° (WNW) 12:04:15 435.215
POLYITAN 1 29 Jul 11:50:10 11:54:24 70° 76° (ENE) 11:58:41 437.675
UNISAT 6 29 Jul 11:54:54 11:58:01 18° 268° (W) 12:01:09 437.425
Cosmos 2504 29 Jul 11:55:01 12:03:48 65° 280° (W) 12:12:35 435.465 / 435.565
M-CUBED/EXP-1 PRIME 29 Jul 12:10:54 12:15:10 34° 294° (WNW) 12:19:22 437.505
RS-15 29 Jul 12:13:38 12:21:38 19° 6° (N) 12:29:43 29.354- 29.394
DX 1 29 Jul 12:13:53 12:16:31 15° 93° (E) 12:19:08 434.975-435.025
AISAT 29 Jul 12:22:08 12:26:02 29° 97° (E) 12:29:55 437.250
UKube-1 29 Jul 12:22:48 12:25:19 15° 93° (E) 12:27:49 .
Oscar 19 29 Jul 12:26:29 12:28:54 13° 61° (ENE) 12:31:19 437.125/150
NANOSAT C BR1 29 Jul 12:31:14 12:35:12 40° 261° (W) 12:39:15 145.865
DUCHIFAT 1 29 Jul 12:34:15 12:38:13 40° 262° (W) 12:42:14 145.980
AUBIESAT-1 29 Jul 12:35:13 12:38:55 24° 297° (WNW) 12:42:36 437.475
BUGSAT 1 29 Jul 12:37:54 12:41:59 87° 256° (WSW) 12:46:09 437.445
SPROUT 29 Jul 12:50:10 12:53:49 26° 96° (E) 12:57:26 437.525
QB50P1 29 Jul 12:56:08 12:59:20 21° 266° (W) 13:02:34 145.935-145.965
POPSAT HIP 1 29 Jul 13:03:12 13:06:06 18° 266° (W) 13:09:02 437.405
CUBEBUG 1 29 Jul 13:07:20 13:11:44 76° 285° (WNW) 13:16:09 437.445
ESTCUBE 1 29 Jul 13:07:23 13:11:44 51° 287° (WNW) 13:16:04 437.505/2401.250
AO-85 29 Jul 13:09:29 13:14:30 40° 115° (ESE) 13:19:22 145.980
JAS-2 29 Jul 13:11:54 13:17:53 62° 258° (WSW) 13:23:17 435.910
VELOX 1 29 Jul 13:12:55 13:17:22 79° 285° (WNW) 13:21:50 145.980
AIST 1 29 Jul 13:16:45 13:20:46 43° 93° (E) 13:24:49
50 SAT 29 Jul 13:17:09 13:20:40 52° 285° (WNW) 13:24:09 437.505
TISAT 1 29 Jul 13:36:33 13:39:38 19° 94° (E) 13:42:42 437.305
DX 1 29 Jul 13:48:45 13:52:53 43° 288° (WNW) 13:57:01 434.975-435.025
Cosmos 2504 29 Jul 13:55:53 13:58:59 12° 301° (WNW) 14:02:06 435.465 / 435.565
UKube-1 29 Jul 13:57:26 14:01:33 43° 288° (WNW) 14:05:39 .
AISAT 29 Jul 13:58:46 14:02:22 24° 292° (WNW) 14:05:58 437.250
Oscar 19 29 Jul 14:02:28 14:07:34 73° 257° (WSW) 14:12:43 437.125/150
GONETS M04 29 Jul 14:04:11 14:08:58 16° 77° (ENE) 14:13:45
Gurwin Techsat 1B 29 Jul 14:04:17 14:09:26 52° 72° (ENE) 14:14:35 435.225
ITAMSAT 1 29 Jul 14:05:24 14:08:48 18° 63° (ENE) 14:12:13 435.822/435.867
SPROUT 29 Jul 14:26:06 14:29:39 25° 291° (WNW) 14:33:10 437.525
RS-15 29 Jul 14:28:13 14:39:22 37° 39° (NE) 14:50:25 29.354- 29.394
CUSAT 1 29 Jul 14:41:31 14:44:37 43° 80° (E) 14:48:32 437.405
AO-7 29 Jul 14:42:29 14:49:31 32° 59° (ENE) 14:56:35 29.400- 29.500
Cosmos 2499 29 Jul 14:48:42 14:55:32 26° 83° (E) 15:02:14 435.465 / 435.565
AO-85 29 Jul 14:50:26 14:55:05 29° 310° (NW) 14:59:34 145.980
SWISSCUBE 29 Jul 14:51:10 14:55:11 27° 96° (E) 14:59:10 437.505
AIST 1 29 Jul 14:56:25 14:58:36 14° 289° (WNW) 15:00:48
TISAT 1 29 Jul 15:11:31 15:15:20 33° 289° (WNW) 15:19:07 437.305
BEESAT 29 Jul 15:11:53 15:16:22 39° 99° (E) 15:20:48 436.000
DANDE 29 Jul 15:29:56 15:32:32 43° 80° (E) 15:35:31 436.750
ITUPSAT 1 29 Jul 15:36:36 15:41:23 72° 102° (ESE) 15:46:07 437.325
ITAMSAT 1 29 Jul 15:42:40 15:47:47 56° 259° (WSW) 15:52:56 435.822/435.867
Gurwin Techsat 1B 29 Jul 15:46:02 15:49:39 18° 267° (W) 15:53:16 435.225
GONETS M04 29 Jul 15:55:45 16:04:27 90° 97° (E) 16:13:14
SO-50 29 Jul 16:07:56 16:11:51 26° 48° (NE) 16:15:40 436.795
KKS-1 29 Jul 16:12:23 16:15:35 19° 94° (E) 16:18:45 437.445
PHONESAT 2.4 29 Jul 16:27:25 16:30:21 44° 157° (SSE) 16:33:19 2401.200-2431.200
SWISSCUBE 29 Jul 16:28:48 16:32:55 29° 291° (WNW) 16:36:59 437.505
HORYU 2 29 Jul 16:32:47 16:36:25 25° 68° (ENE) 16:40:03 437.375
AO-7 29 Jul 16:33:36 16:41:48 59° 257° (WSW) 16:50:05 29.400- 29.500
Cosmos 2499 29 Jul 16:39:08 16:47:57 67° 280° (W) 16:56:34 435.465 / 435.565
RS-15 29 Jul 16:40:45 16:53:06 77° 244° (WSW) 17:05:12 29.354- 29.394
STARS 29 Jul 16:43:28 16:46:45 20° 94° (E) 16:50:01 437.465
BEESAT 29 Jul 16:50:21 16:53:51 21° 294° (WNW) 16:57:20 436.000
NOAA 18 29 Jul 17:04:49 17:06:29 11° 58° (ENE) 17:08:10 137.9125
MOZHAYETS 4 29 Jul 17:05:39 17:10:15 83° 103° (ESE) 17:14:47
ITUPSAT 1 29 Jul 17:16:43 17:18:35 12° 298° (WNW) 17:20:27 437.325
Cubesat XI-IV 29 Jul 17:20:59 17:24:00 15° 61° (ENE) 17:27:00 437.490
CUTE-I 29 Jul 17:42:17 17:46:30 24° 65° (ENE) 17:50:45 437.470
KKS-1 29 Jul 17:48:06 17:52:14 37° 289° (WNW) 17:56:21 437.445
SO-50 29 Jul 17:48:13 17:52:22 34° 246° (WSW) 17:56:23 436.795
NOAA 15 29 Jul 17:52:31 17:57:20 39° 69° (ENE) 18:02:10 137.62
GONETS M04 29 Jul 17:57:05 18:02:30 18° 297° (WNW) 18:07:59
PHONESAT 2.4 29 Jul 18:03:46 18:06:49 64° 353° (N) 18:09:54 2401.200-2431.200
BRITE-PL 29 Jul 18:08:19 18:12:22 60° 75° (ENE) 18:16:31 437.365/2234.400
HORYU 2 29 Jul 18:08:55 18:12:49 29° 263° (W) 18:16:45 437.375
LilacSat-2 29 Jul 18:18:44 18:22:23 41° 73° (ENE) 18:26:04 437.200
STARS 29 Jul 18:19:09 18:23:10 34° 290° (WNW) 18:27:10 437.465
PCSat 29 Jul 18:31:22 18:36:07 32° 109° (ESE) 18:40:53 145.827
BEESAT 3 29 Jul 18:31:42 18:35:36 72° 302° (WNW) 18:39:33 437.485
CUBESAT XI-V 29 Jul 18:32:32 18:37:10 84° 102° (ESE) 18:41:48 437.345
DOVE 4 29 Jul 18:35:17 18:38:41 23° 67° (ENE) 18:42:14 437.250
Cosmos 2499 29 Jul 18:39:23 18:42:43 12° 300° (WNW) 18:46:02 435.465 / 435.565
NOAA 18 29 Jul 18:40:43 18:46:15 83° 74° (ENE) 18:51:50 137.9125
BEESAT 2 29 Jul 18:43:31 18:47:27 78° 119° (ESE) 18:51:26 435.950
GOMX 1 29 Jul 18:55:46 18:59:56 88° 85° (E) 19:04:20 467.674
RS-15 29 Jul 18:56:37 19:03:26 17° 264° (W) 19:10:12 29.354- 29.394
Cubesat XI-IV 29 Jul 18:58:05 19:03:26 70° 257° (WSW) 19:08:50 437.490
HO-68 29 Jul 19:00:04 19:05:31 24° 59° (ENE) 19:11:00 435.675
CUTE 1.7 + AOD 2 29 Jul 19:10:43 19:12:06 11° 64° (ENE) 19:13:30 437.475
CUTE-I 29 Jul 19:21:12 19:26:16 42° 261° (W) 19:31:22 437.470
NOAA 15 29 Jul 19:32:59 19:37:11 24° 265° (W) 19:41:23 137.62
STRAND 1 29 Jul 19:33:53 19:37:41 21° 94° (E) 19:41:27 437.568
AIST 2 29 Jul 19:34:14 19:34:52 10° 107° (ESE) 19:35:30 435.215
PHONESAT 2.4 29 Jul 19:40:23 19:43:28 73° 11° (NNE) 19:46:33 2401.200-2431.200
SEEDS 29 Jul 19:42:50 19:45:46 19° 67° (ENE) 19:48:41 437.485
COMPASS 1 29 Jul 19:49:43 19:52:09 15° 66° (ENE) 19:54:35 437.405
O/OREOS (USA 219) 29 Jul 19:52:31 19:56:14 26° 103° (ESE) 19:59:57 437.305
LilacSat-2 29 Jul 19:55:10 19:56:53 12° 268° (W) 19:58:35 437.200
CINEMA 3 29 Jul 20:01:51 20:06:17 56° 74° (ENE) 20:10:58 145.822/145.860
YUBILEINY 29 Jul 20:03:29 20:10:59 30° 70° (ENE) 20:18:22 435.215
DOVE 4 29 Jul 20:12:26 20:16:13 30° 265° (W) 20:20:12 437.250
AAUSAT CUBESAT 2 29 Jul 20:14:11 20:17:25 22° 69° (ENE) 20:20:39 437.432
PCSat 29 Jul 20:14:31 20:19:26 34° 306° (NW) 20:24:22 145.827
ZACube-1 29 Jul 20:18:29 20:19:47 11° 62° (ENE) 20:21:04 437.345
UWE-3 29 Jul 20:22:22 20:25:37 19° 66° (ENE) 20:28:55 435.000/436.395/437.385
BEESAT 2 29 Jul 20:24:26 20:25:47 11° 317° (NW) 20:27:09 435.950
NOAA 18 29 Jul 20:25:44 20:27:31 11° 270° (W) 20:29:19 137.9125
CANX-2 29 Jul 20:30:17 20:34:33 75° 258° (WSW) 20:38:50 2200.000
ISS 29 Jul 20:32:21 20:35:33 62° 138° (SE) 20:38:47 145.825
CUTE 1.7 + AOD 2 29 Jul 20:43:11 20:47:25 61° 260° (W) 20:51:38 437.475
HO-68 29 Jul 20:45:30 20:52:37 66° 257° (WSW) 20:59:48 435.675
CUBEBUG 2 29 Jul 20:49:13 20:53:43 53° 73° (ENE) 20:58:20 437.445
Oscar 11 29 Jul 20:51:49 20:55:21 25° 69° (ENE) 20:58:52 145.826/435.025
AIST 2 29 Jul 21:08:42 21:12:46 64° 303° (WNW) 21:16:53 435.215
STRAND 1 29 Jul 21:12:12 21:17:01 43° 289° (WNW) 21:21:47 437.568
PHONESAT 2.4 29 Jul 21:17:02 21:19:51 32° 206° (SSW) 21:22:39 2401.200-2431.200
SEEDS 29 Jul 21:17:20 21:21:12 34° 263° (W) 21:25:04 437.485
M-CUBED/EXP-1 PRIME 29 Jul 21:22:25 21:25:23 21° 62° (ENE) 21:28:33 437.505
COMPASS 1 29 Jul 21:23:22 21:27:20 42° 261° (W) 21:31:19 437.405
Cosmos 2491 29 Jul 21:25:14 21:33:30 51° 89° (E) 21:41:48 435.465 / 435.565
O/OREOS (USA 219) 29 Jul 21:31:45 21:35:32 27° 299° (WNW) 21:39:21 437.305
CINEMA 3 29 Jul 21:41:38 21:43:50 13° 271° (W) 21:46:05 145.822/145.860
AO-85 29 Jul 21:43:28 21:46:53 22° 46° (NE) 21:50:07 145.980
PRISM 29 Jul 21:44:57 21:49:01 61° 101° (ESE) 21:53:05 437.425
AUBIESAT-1 29 Jul 21:45:19 21:48:46 31° 65° (ENE) 21:52:28 437.475
DELFI C3 29 Jul 21:46:21 21:50:05 40° 73° (ENE) 21:53:49 145.870
FUNcube-1 29 Jul 21:48:13 21:52:44 84° 254° (WSW) 21:57:21 145.935
AAUSAT CUBESAT 2 29 Jul 21:49:13 21:52:45 27° 264° (W) 21:56:18 437.432
Cosmos 2504 29 Jul 21:50:26 21:58:04 44° 75° (ENE) 22:05:09 435.465 / 435.565
ZACube-1 29 Jul 21:50:51 21:55:24 74° 259° (W) 22:00:00 437.345
UWE-3 29 Jul 21:57:25 22:01:44 41° 262° (W) 22:06:10 435.000/436.395/437.385
YUBILEINY 29 Jul 21:59:37 22:08:13 58° 270° (W) 22:16:44 435.215
ISS 29 Jul 22:09:49 22:12:14 19° 336° (NNW) 22:14:40 145.825
